Location: Krasnoyarskiy Pitomnik
(51.1333°N, 71.6167°E)
Time: 10:15:43
(UTC+00:00)

Cosmos 2369 Rocket - Pass Details

Date: 22 October 2021
Orbit: 829 x 852 km, 71.0° (Epoch: 07 December)

Event Time Altitude Azimuth Distance (km) Brightness Sun altitude
Rises 14:29:43 0° 323° (NW) 3,383 6.1 -23.1°
Reaches altitude 10° 14:34:40 10° 1° (N) 2,447 4.7 -23.8°
Maximum altitude 14:35:52 11° 13° (NNE) 2,401 4.5 -24.0°
Drops below altitude 10° 14:37:06 10° 26° (NNE) 2,447 4.5 -24.2°
Enters shadow 14:37:11 10° 27° (NNE) 2,454 4.5 -24.2°
